sat.trackr.live / text

‹ back to catalog

STARLINK-32657

NORAD 62475 · 2024-254P

PAYLOAD ACTIVE UNKNOWN

§ Identity

Operator
Country
US
Launch date
2024-12-31
Launch site
AFETR
Launch vehicle
Mass (kg)
RCS (m²)

Purposes: comms

External: N2YO · Heavens-Above · Gunter

§ Orbital elements

Epoch: 2026-05-24T18:59:26.331072Z

Period
94.27 min
Inclination
43.0016°
Eccentricity
0.0001734
Mean motion
15.27601531 rev/d
Perigee alt
481.8 km
Apogee alt
484.2 km
Semi-major
6,861.1 km
B*
8.6869e-4
RAAN
309.8912°
Arg perigee
274.7461°
Mean anomaly
85.3193°
Rev number
7,910

§ Raw data

STARLINK-326571 62475U 24254P   26144.79127698  .00023735  00000+0  86869-3 0  99962 62475  43.0016 309.8912 0001734 274.7461  85.3193 15.27601531 79105

JSON: /api/v1/satellites/62475 · /tle

For live sub-satellite position, see the globe view (requires WebGL).

§ Visibility from observer

Set your observer location to see the next 7 days of passes ≥ 10°. The values pass through the URL so the page stays shareable.

No JS? Fill the form by hand. The geolocation button needs JavaScript.